OneWeb SL0409

operational
NORAD ID: 50488 Int'l Des: 2021-132 Owner: ONEWEBN Country: UK Constellation: oneweb
LEOCIRCULARPOLARONEWEB_TYPE

Über OneWeb SL0409

Beschreibung wird geladen...

Live-Position

3D-Globus wird geladen...

Nächste Überflüge

Höhenverlauf

Altitude vs Time

uPlot chart will show altitude changes over time

Zweizeiliger Elementsatz

1 50488U 21132V 26036.26010474 .00000179 00000-0 46956-3 0 9995
2 50488 87.8833 47.2988 0002218 92.4007 267.7375 13.11414642198290
Epoch: 5. Feb. 2026 • Age: 6 hours

Aktueller Status

Höhe 1228.0 km
Geschwindigkeit 7.25 km/s
Subsatellitenpunkt 67.97°N, 95.59°E
Startdatum 27. Dez. 2021
Alter 4.1 years
Typ internet

Technische Details

Klassifizierung Payload
Masse 148.00 kg
Trockenmasse 140.00 kg
Gesamtmasse 148.00 kg
Länge 1.30 m
Durchmesser 1.00 m
Spannweite 5.00 m
Form Trapezoid+2 pan
Hersteller ONEWUS
Bus-Typ ARROW
Phasenstatus In Orbit
Besitzer/Staat ONEWEBN/UK

Große Konstellationen

Loading constellations...